EW7004 Weather Reports


time (UTC)temp
C
wind
direction
speed
KPH
gust
KPH
rain 1hr
cm
rain 24hr
cm
rain mn
cm
humidity
%
barometer
mb
20260507132903 11 136 0.0 0.0 0.00 0.00 0.00 84 1034.0
20260507132403 11 136 0.0 0.0 0.00 0.00 0.00 84 1034.0
20260507131903 11 136 0.0 0.0 0.00 0.00 0.00 84 1034.0
20260507131404 11 136 0.0 0.0 0.00 0.00 0.00 84 1033.9
20260507130903 11 136 0.0 0.0 0.00 0.00 0.00 84 1033.9
20260507130403 11 136 0.0 3.2 0.00 0.00 0.00 84 1033.9
20260507125404 11 136 0.0 0.0 0.00 0.00 0.00 83 1033.8
20260507124903 11 136 0.0 3.2 0.00 0.00 0.00 83 1033.8
20260507124404 11 136 1.6 3.2 0.00 0.00 0.00 82 1033.7
20260507123903 11 136 0.0 0.0 0.00 0.00 0.00 82 1033.6
20260507122903 12 136 0.0 0.0 0.00 0.00 0.00 82 1033.8
20260507122403 12 136 0.0 0.0 0.00 0.00 0.00 81 1033.9
20260507121903 12 136 0.0 0.0 0.00 0.00 0.00 81 1033.8
20260507121403 12 136 0.0 0.0 0.00 0.00 0.00 80 1033.8
20260507115403 12 136 0.0 3.2 0.00 0.00 0.00 81 1033.7
20260507114903 12 136 3.2 4.8 0.00 0.00 0.00 81 1033.8
20260507114404 12 105 0.0 4.8 0.00 0.00 0.00 81 1033.9
20260507113904 12 105 1.6 4.8 0.00 0.00 0.00 81 1033.9
20260507113403 12 105 1.6 4.8 0.00 0.00 0.00 81 1034.0
20260507112903 12 153 0.0 0.0 0.00 0.00 0.00 81 1034.0
20260507111904 12 153 0.0 0.0 0.00 0.00 0.00 81 1034.0
20260507111404 12 153 0.0 0.0 0.00 0.00 0.00 81 1034.1
20260507110403 12 153 0.0 0.0 0.00 0.00 0.00 80 1034.2
20260507105904 12 153 0.0 1.6 0.00 0.00 0.00 80 1034.2
20260507105404 12 153 0.0 0.0 0.00 0.00 0.00 80 1034.2
20260507104904 13 153 0.0 0.0 0.00 0.00 0.00 80 1034.1
20260507104403 13 153 0.0 1.6 0.00 0.00 0.00 80 1034.2
20260507103903 13 153 0.0 3.2 0.00 0.00 0.00 80 1034.2
20260507103403 13 153 1.6 4.8 0.00 0.00 0.00 80 1034.3
20260507102903 13 153 1.6 4.8 0.00 0.00 0.00 80 1034.3
20260507101403 13 223 0.0 0.0 0.00 0.00 0.00 80 1034.5
20260507100404 13 223 0.0 0.0 0.00 0.00 0.00 80 1034.5
20260507095903 13 223 0.0 0.0 0.00 0.00 0.00 80 1034.5
20260507095403 13 223 0.0 0.0 0.00 0.00 0.00 80 1034.6
20260507094904 13 223 0.0 0.0 0.00 0.00 0.00 80 1034.6
20260507094403 13 223 0.0 0.0 0.00 0.00 0.00 79 1034.7
20260507093903 13 223 0.0 4.8 0.00 0.00 0.00 79 1034.6
20260507093404 13 223 0.0 1.6 0.00 0.00 0.00 78 1034.7
20260507092903 13 223 0.0 0.0 0.00 0.00 0.00 78 1034.7
20260507092403 13 223 0.0 0.0 0.00 0.00 0.00 78 1034.7
20260507091903 13 223 0.0 0.0 0.00 0.00 0.00 77 1034.7
20260507091404 13 223 0.0 0.0 0.00 0.00 0.00 77 1034.7
20260507090904 13 223 0.0 0.0 0.00 0.00 0.00 77 1034.8
20260507085903 14 223 0.0 0.0 0.00 0.00 0.00 77 1034.9
20260507085403 14 223 0.0 0.0 0.00 0.00 0.00 76 1035.0
20260507084904 14 223 0.0 0.0 0.00 0.00 0.00 76 1035.0
20260507084404 14 223 0.0 0.0 0.00 0.00 0.00 75 1035.1
20260507083904 14 223 0.0 0.0 0.00 0.00 0.00 75 1035.1
20260507083404 14 223 0.0 0.0 0.00 0.00 0.00 74 1035.1
20260507082403 15 223 0.0 0.0 0.00 0.00 0.00 74 1035.2
20260507081903 15 223 0.0 0.0 0.00 0.00 0.00 73 1035.2
20260507081404 15 223 0.0 0.0 0.00 0.00 0.00 73 1035.2
20260507080904 15 223 0.0 0.0 0.00 0.00 0.00 73 1035.2
20260507080403 15 223 0.0 0.0 0.00 0.00 0.00 73 1035.1
20260507075903 15 223 0.0 0.0 0.00 0.00 0.00 73 1035.1
20260507075403 15 223 0.0 0.0 0.00 0.00 0.00 72 1035.1
20260507074903 15 223 0.0 0.0 0.00 0.00 0.00 71 1035.1
20260507074404 15 223 0.0 3.2 0.00 0.00 0.00 71 1035.1
20260507073904 15 223 0.0 1.6 0.00 0.00 0.00 71 1035.1
20260507073403 15 223 0.0 0.0 0.00 0.00 0.00 70 1035.2
20260507072903 15 223 0.0 0.0 0.00 0.00 0.00 70 1035.2
20260507072404 15 223 0.0 0.0 0.00 0.00 0.00 70 1035.3
20260507071904 15 223 0.0 0.0 0.00 0.00 0.00 70 1035.3
20260507070903 15 223 0.0 3.2 0.00 0.00 0.00 70 1035.4
20260507065903 16 223 0.0 0.0 0.00 0.00 0.00 70 1035.5
20260507065404 16 223 0.0 0.0 0.00 0.00 0.00 69 1035.5
20260507064904 16 223 0.0 0.0 0.00 0.00 0.00 69 1035.5
20260507064404 16 223 0.0 0.0 0.00 0.00 0.00 68 1035.6
20260507062404 16 223 0.0 0.0 0.00 0.00 0.00 67 1035.5
20260507061903 16 223 0.0 0.0 0.00 0.00 0.00 67 1035.5
20260507060904 16 223 0.0 1.6 0.00 0.00 0.00 67 1035.4
20260507060403 16 223 1.6 3.2 0.00 0.00 0.00 67 1035.4
20260507055404 17 223 1.6 3.2 0.00 0.00 0.00 67 1035.5
20260507054904 17 223 0.0 0.0 0.00 0.00 0.00 66 1035.4
20260507054403 17 223 0.0 3.2 0.00 0.00 0.00 66 1035.5
20260507053903 17 223 1.6 4.8 0.00 0.00 0.00 66 1035.4
20260507053402 17 223 0.0 3.2 0.00 0.00 0.00 66 1035.4
20260507052403 17 223 0.0 1.6 0.00 0.00 0.00 65 1035.4
20260507051903 17 223 0.0 0.0 0.00 0.00 0.00 65 1035.4
20260507051403 17 223 0.0 0.0 0.00 0.00 0.00 65 1035.4
20260507050904 17 223 1.6 3.2 0.00 0.00 0.00 65 1035.4
20260507050405 17 223 0.0 3.2 0.00 0.00 0.00 65 1035.3
20260507045903 17 224 3.2 8.0 0.00 0.00 0.00 65 1035.3
20260507045404 17 221 6.4 9.7 0.00 0.00 0.00 65 1035.2
20260507044903 17 231 6.4 9.7 0.00 0.00 0.00 65 1035.2
20260507044403 17 232 4.8 9.7 0.00 0.00 0.00 64 1035.3
20260507043903 17 223 9.7 12.9 0.00 0.00 0.00 64 1035.1
20260507043404 17 223 8.0 12.9 0.00 0.00 0.00 64 1035.2
20260507042903 18 211 8.0 11.3 0.00 0.00 0.00 63 1035.1
20260507042403 18 194 4.8 9.7 0.00 0.00 0.00 63 1035.2
20260507041903 18 199 3.2 8.0 0.00 0.00 0.00 63 1035.2
20260507041403 18 208 4.8 8.0 0.00 0.00 0.00 62 1035.1
20260507040903 18 205 4.8 9.7 0.00 0.00 0.00 62 1035.0
20260507035904 18 212 4.8 8.0 0.00 0.00 0.00 62 1034.9
20260507035403 18 225 4.8 8.0 0.00 0.00 0.00 61 1034.9
20260507034904 18 221 3.2 8.0 0.00 0.00 0.00 61 1034.8
20260507033903 19 196 1.6 4.8 0.00 0.00 0.00 61 1034.7
20260507033403 19 164 1.6 8.0 0.00 0.00 0.00 60 1034.7
20260507032904 19 164 3.2 8.0 0.00 0.00 0.00 60 1034.6
20260507032403 20 181 4.8 8.0 0.00 0.00 0.00 59 1034.5
20260507031904 20 178 1.6 4.8 0.00 0.00 0.00 59 1034.4
20260507031403 20 194 1.6 3.2 0.00 0.00 0.00 58 1034.4
20260507030903 20 194 1.6 4.8 0.00 0.00 0.00 58 1034.2
20260507030403 20 180 3.2 9.7 0.00 0.00 0.00 58 1034.2
20260507025903 20 207 8.0 12.9 0.00 0.00 0.00 57 1034.1
20260507025403 20 217 8.0 12.9 0.00 0.00 0.00 57 1034.1
20260507023903 21 215 11.3 20.9 0.00 0.00 0.00 56 1033.8
20260507023403 21 211 16.1 22.5 0.00 0.00 0.00 55 1033.8
20260507022903 21 208 8.0 16.1 0.00 0.00 0.00 54 1033.7
20260507022403 21 208 12.9 20.9 0.00 0.00 0.00 54 1033.6
20260507021903 21 210 16.1 24.1 0.00 0.00 0.00 53 1033.5
20260507021404 22 209 14.5 24.1 0.00 0.00 0.00 53 1033.5
20260507020903 22 209 17.7 24.1 0.00 0.00 0.00 52 1033.5
20260507020403 22 209 12.9 19.3 0.00 0.00 0.00 52 1033.4
20260507015903 22 212 11.3 22.5 0.00 0.00 0.00 51 1033.3
20260507015403 22 224 16.1 22.5 0.00 0.00 0.00 50 1033.2
20260507014904 23 213 17.7 24.1 0.00 0.00 0.00 49 1033.2
20260507014403 23 207 12.9 22.5 0.00 0.00 0.00 49 1033.1
20260507013903 23 225 19.3 29.0 0.00 0.00 0.00 47 1033.1
20260507013403 24 212 11.3 22.5 0.00 0.00 0.00 46 1033.1
20260507012903 25 224 11.3 22.5 0.00 0.00 0.00 44 1033.1
20260507012403 25 207 4.8 19.3 0.00 0.00 0.00 44 1033.0
20260507010903 25 297 9.7 16.1 0.00 0.00 0.00 34 1033.0
20260507010403 26 291 8.0 14.5 0.00 0.00 0.00 34 1032.9
20260507005903 26 305 9.7 19.3 0.00 0.00 0.00 34 1032.9
20260507005403 26 286 6.4 20.9 0.00 0.00 0.00 34 1032.9
20260507004903 25 306 9.7 16.1 0.00 0.00 0.00 33 1032.8
20260507004405 25 308 9.7 19.3 0.00 0.00 0.00 33 1032.9
20260507003903 26 308 8.0 14.5 0.00 0.00 0.00 33 1032.9
20260507003404 26 311 9.7 16.1 0.00 0.00 0.00 33 1032.8
20260507002403 26 318 8.0 19.3 0.00 0.00 0.00 33 1032.7
20260507001403 26 340 6.4 16.1 0.00 0.00 0.00 32 1032.7
20260507000903 26 296 9.7 19.3 0.00 0.00 0.00 32 1032.7
20260507000405 26 325 6.4 19.3 0.00 0.00 0.00 32 1032.7
20260506235903 26 310 8.0 19.3 0.00 0.00 0.00 32 1032.7
20260506235404 26 273 8.0 14.5 0.00 0.00 0.00 32 1032.6
20260506234404 26 291 12.9 19.3 0.00 0.00 0.00 33 1032.7
20260506233904 26 304 11.3 19.3 0.00 0.00 0.00 33 1032.7
20260506232903 26 311 9.7 16.1 0.00 0.00 0.00 33 1032.7
20260506231903 26 304 11.3 19.3 0.00 0.00 0.00 33 1032.8
20260506231403 26 316 9.7 19.3 0.00 0.00 0.00 33 1032.7
20260506230903 26 294 11.3 19.3 0.00 0.00 0.00 33 1032.8
20260506230403 26 325 12.9 20.9 0.00 0.00 0.00 33 1032.9
20260506225903 26 305 9.7 20.9 0.00 0.00 0.00 33 1032.8
20260506225403 26 306 9.7 19.3 0.00 0.00 0.00 33 1032.9
20260506224403 25 351 11.3 19.3 0.00 0.00 0.00 34 1033.0
20260506223903 26 316 12.9 19.3 0.00 0.00 0.00 33 1033.0
20260506222903 25 329 8.0 19.3 0.00 0.00 0.00 34 1033.1
20260506222404 25 350 3.2 12.9 0.00 0.00 0.00 33 1033.2
20260506221904 25 248 0.0 4.8 0.00 0.00 0.00 34 1033.2
20260506221403 25 281 8.0 16.1 0.00 0.00 0.00 33 1033.4
20260506220903 25 207 8.0 14.5 0.00 0.00 0.00 34 1033.4
20260506220404 25 276 3.2 4.8 0.00 0.00 0.00 35 1033.6
20260506215903 25 304 6.4 11.3 0.00 0.00 0.00 34 1033.8
20260506214904 25 279 8.0 14.5 0.00 0.00 0.00 35 1033.8
20260506214403 24 10 6.4 9.7 0.00 0.00 0.00 35 1033.8
20260506213904 24 316 6.4 12.9 0.00 0.00 0.00 36 1033.9
20260506213403 24 261 4.8 12.9 0.00 0.00 0.00 35 1034.0
20260506212904 24 316 6.4 12.9 0.00 0.00 0.00 35 1034.1
20260506212404 24 274 9.7 16.1 0.00 0.00 0.00 35 1034.2
20260506211903 24 326 8.0 14.5 0.00 0.00 0.00 35 1034.2
20260506211404 24 246 6.4 9.7 0.00 0.00 0.00 35 1034.3
20260506210903 24 252 8.0 12.9 0.00 0.00 0.00 36 1034.4
20260506210403 23 329 1.6 4.8 0.00 0.00 0.00 37 1034.4
20260506205403 23 191 4.8 11.3 0.00 0.00 0.00 36 1034.6
20260506204404 22 346 4.8 12.9 0.00 0.00 0.00 37 1034.7
20260506202903 22 16 4.8 14.5 0.00 0.00 0.00 36 1034.9
20260506201403 22 284 1.6 4.8 0.00 0.00 0.00 39 1035.2
20260506200903 22 356 4.8 8.0 0.00 0.00 0.00 39 1035.2
20260506200404 22 337 4.8 9.7 0.00 0.00 0.00 39 1035.3
20260506194904 21 266 4.8 11.3 0.00 0.00 0.00 40 1035.6
20260506194404 21 230 8.0 16.1 0.00 0.00 0.00 41 1035.7
20260506193404 21 176 3.2 9.7 0.00 0.00 0.00 44 1035.7
20260506192903 21 197 4.8 9.7 0.00 0.00 0.00 41 1035.9
20260506192404 21 156 4.8 8.0 0.00 0.00 0.00 43 1035.9
20260506191903 21 215 6.4 9.7 0.00 0.00 0.00 43 1036.1
20260506191404 21 176 3.2 11.3 0.00 0.00 0.00 44 1036.1
20260506190904 21 259 4.8 12.9 0.00 0.00 0.00 44 1036.1
20260506190403 20 194 1.6 9.7 0.00 0.00 0.00 47 1036.3
20260506185903 20 262 3.2 11.3 0.00 0.00 0.00 47 1036.2
20260506185404 20 175 1.6 4.8 0.00 0.00 0.00 48 1036.4
20260506184903 19 215 3.2 12.9 0.00 0.00 0.00 48 1036.4
20260506184404 19 264 3.2 4.8 0.00 0.00 0.00 49 1036.5
20260506183403 18 258 8.0 14.5 0.00 0.00 0.00 50 1036.6
20260506182904 18 225 6.4 11.3 0.00 0.00 0.00 50 1036.7
20260506181403 18 143 3.2 4.8 0.00 0.00 0.00 51 1036.9
20260506180903 17 265 6.4 14.5 0.00 0.00 0.00 52 1037.0
20260506180404 17 307 3.2 12.9 0.00 0.00 0.00 54 1036.9
20260506175903 17 306 8.0 12.9 0.00 0.00 0.00 53 1037.0
20260506175404 17 280 4.8 14.5 0.00 0.00 0.00 52 1037.0
20260506174403 17 227 4.8 8.0 0.00 0.00 0.00 54 1036.9
20260506173903 17 298 4.8 12.9 0.00 0.00 0.00 55 1037.0
20260506173403 17 279 4.8 9.7 0.00 0.00 0.00 55 1037.0
20260506172403 16 284 4.8 11.3 0.00 0.00 0.00 54 1037.1
20260506171404 16 334 1.6 9.7 0.00 0.00 0.00 56 1037.1
20260506170903 16 313 6.4 12.9 0.00 0.00 0.00 56 1037.1
20260506170403 16 279 4.8 11.3 0.00 0.00 0.00 56 1037.1
20260506165903 16 355 3.2 8.0 0.00 0.00 0.00 56 1037.1
20260506165404 16 324 4.8 11.3 0.00 0.00 0.00 58 1037.1
20260506164903 16 281 4.8 9.7 0.00 0.00 0.00 59 1037.1
20260506163903 15 298 3.2 9.7 0.00 0.00 0.00 61 1037.2
20260506163403 15 318 3.2 8.0 0.00 0.00 0.00 62 1037.1
20260506162903 15 309 3.2 4.8 0.00 0.00 0.00 63 1037.1
20260506162403 15 76 0.0 3.2 0.00 0.00 0.00 64 1037.1
20260506161904 15 74 1.6 4.8 0.00 0.00 0.00 66 1037.1
20260506161403 15 0 0.0 0.0 0.00 0.00 0.00 67 1037.1
20260506160903 14 0 0.0 0.0 0.00 0.00 0.00 68 1037.1
20260506160404 14 0 0.0 4.8 0.00 0.00 0.00 69 1037.1
20260506155903 14 0 3.2 4.8 0.00 0.00 0.00 71 1037.1
20260506155403 13 5 0.0 0.0 0.00 0.00 0.00 73 1037.1
20260506154903 13 5 0.0 0.0 0.00 0.00 0.00 74 1037.1
20260506154403 13 5 0.0 0.0 0.00 0.00 0.00 75 1037.1
20260506153903 13 5 0.0 0.0 0.00 0.00 0.00 76 1037.1
20260506153404 12 5 0.0 0.0 0.00 0.00 0.00 77 1037.1
20260506152903 12 278 0.0 0.0 0.00 0.00 0.00 78 1037.1
20260506152403 12 278 0.0 0.0 0.00 0.00 0.00 80 1037.1
20260506151903 12 278 0.0 0.0 0.00 0.00 0.00 81 1037.2
20260506151403 12 279 0.0 0.0 0.00 0.00 0.00 81 1037.2
20260506150903 11 278 0.0 0.0 0.00 0.00 0.00 81 1037.2
20260506150403 11 278 0.0 0.0 0.00 0.00 0.00 82 1037.2
20260506145403 11 278 0.0 0.0 0.00 0.13 0.00 83 1037.2
20260506144903 10 278 0.0 0.0 0.00 0.20 0.00 83 1037.2
20260506144403 10 278 0.0 0.0 0.00 0.20 0.00 84 1037.3
20260506143903 10 278 0.0 0.0 0.00 0.20 0.00 84 1037.3
20260506143403 10 278 0.0 0.0 0.00 0.20 0.00 84 1037.2
20260506142903 10 278 0.0 0.0 0.00 0.20 0.00 85 1037.1
20260506142403 9 278 0.0 0.0 0.00 0.20 0.00 85 1037.2
20260506141904 9 241 0.0 0.0 0.00 0.20 0.00 86 1037.1
20260506141403 9 138 0.0 0.0 0.00 0.20 0.00 86 1037.1
20260506140903 9 138 0.0 0.0 0.00 0.20 0.00 86 1037.0
20260506140403 8 138 0.0 0.0 0.00 0.20 0.00 86 1037.0
20260506135903 8 138 0.0 0.0 0.00 0.20 0.00 86 1037.0
20260506135404 8 138 1.6 3.2 0.00 0.20 0.00 86 1037.0
20260506134903 8 138 0.0 0.0 0.00 0.20 0.00 86 1036.9
20260506134403 8 138 0.0 0.0 0.00 0.20 0.00 86 1036.9
20260506133904 8 138 0.0 0.0 0.00 0.20 0.00 86 1036.8
20260506133403 8 138 0.0 0.0 0.00 0.20 0.00 86 1036.8